Regional Weather Roundup
Issued by NWS

Home | Current Version | Previous Version | Graphics & Text | Print | Product List | Glossary On
Versions: 1 2 3 4 5 6 7 8 9 10 11 12 13 14 15 16 17 18 19 20 21 22 23 24 25 26 27 28 29 30 31 32 33 34 35 36 37 38 39 40 41 42 43 44 45 46 47 48 49 50
000
ASUS43 KLSX 292007
RWRMO

WEATHER SUMMARY FOR MISSOURI
NATIONAL WEATHER SERVICE SPRINGFIELD MO
300 PM CDT TUE JUL 29 2014

NOTE: "FAIR" INDICATES FEW OR NO CLOUDS BELOW 12,000 FEET WITH NO
       SIGNIFICANT WEATHER AND/OR OBSTRUCTIONS TO VISIBILITY.
       CURRENT SKY AND/OR WEATHER CONDITIONS ARE NOT AVAILABLE FOR
       CHILLICOTHE AND FARMINGTON.

MOZ001>031-035>038-043-044-053-054-292100-
...NORTHERN AND WESTERN MISSOURI...

CITY           SKY/WX    TMP DP  RH WIND       PRES   REMARKS
KANSAS CTY INT PTSUNNY   79  57  46 N8        30.15F
KANSAS C DTWN  MOSUNNY   82  57  42 W10       30.13F
LEE`S SUMMIT   MOSUNNY   81  54  39 N9        30.15F
ST JOSEPH      PTSUNNY   78  59  51 CALM      30.15F
CHILLICOTHE      N/A     79  55  43 VRB5      30.15F
KIRKSVILLE     MOSUNNY   77  55  46 W9        30.15F

$$
MOZ066>068-077>081-088>096-101>105-292100-
...SOUTHWEST MISSOURI...

CITY           SKY/WX    TMP DP  RH WIND       PRES   REMARKS
SPRINGFIELD    MOSUNNY   82  52  35 N6        30.15F
JOPLIN         CLOUDY    80  56  43 NW9       30.16F

$$
MOZ032>034-039>042-045>050-055>058-069>072-292100-
...CENTRAL MISSOURI...

CITY           SKY/WX    TMP DP  RH WIND       PRES   REMARKS
COLUMBIA       MOSUNNY   79  55  43 NW12      30.14F
JEFFERSON CITY MOSUNNY   81  55  40 N9        30.13F
ROLLA          MOSUNNY   80  51  36 N9        30.13F
SEDALIA        MOSUNNY   82  60  47 NW8       30.15F
WHITEMAN AFB   MOSUNNY   81  43  25 N7        30.13F
OSAGE BEACH    MOSUNNY   81  54  39 NW5       30.13F

$$
MOZ051-052-059>065-292100-
...EAST CENTRAL MISSOURI...

CITY           SKY/WX    TMP DP  RH WIND       PRES   REMARKS
ST LOUIS INTL  MOSUNNY   80  57  45 NW6       30.13F
SPIRIT OF STL  PTSUNNY   82  52  35 NW8       30.12S
ST CHARLES     SUNNY     78  56  46 W9        30.12F

$$
MOZ072>076-082>087-097>100-106>115-292100-
...SOUTH CENTRAL AND SOUTHEAST MISSOURI...

CITY           SKY/WX    TMP DP  RH WIND       PRES   REMARKS
CAPE GIRARDEAU PTSUNNY   78  52  40 N6        30.13S
FARMINGTON     MOSUNNY   75  52  43 W5        30.16F
POPLAR BLUFF   MOSUNNY   78  51  38 NE6       30.13S
WEST PLAINS    MOSUNNY   80  55  42 NW7       30.16F

$$



USA.gov is the U.S. government's official web portal to all federal, state and local government web resources and services.